�������l�o���
Date,Time,MP-1(��Sv/h),MP-2(��Sv/h),MP-3(��Sv/h),MP-4(��Sv/h),MP-5(��Sv/h),MP-6(��Sv/h),MP-7(��Sv/h),����,����(m/s),���J
2021/10/11,00:00,0.159,0.145,0.228,0.222,0.226,0.125,0.078,��쐼,5.0,��
2021/10/11,00:10,0.160,0.146,0.230,0.222,0.229,0.125,0.079,��쐼,5.4,�L
2021/10/11,00:20,0.161,0.146,0.229,0.224,0.228,0.125,0.079,��쐼,5.5,�L
2021/10/11,00:30,0.159,0.145,0.229,0.221,0.229,0.125,0.080,��쐼,5.0,�L
2021/10/11,00:40,0.160,0.145,0.228,0.224,0.228,0.125,0.079,��쐼,4.7,�L
2021/10/11,00:50,0.159,0.145,0.230,0.221,0.227,0.125,0.079,��쐼,4.8,��
2021/10/11,01:00,0.160,0.146,0.227,0.223,0.229,0.124,0.079,��쐼,4.3,�L
2021/10/11,01:10,0.159,0.144,0.230,0.223,0.226,0.125,0.079,��쐼,5.4,�L
2021/10/11,01:20,0.160,0.146,0.228,0.223,0.228,0.125,0.079,��쐼,5.0,�L
2021/10/11,01:30,0.160,0.145,0.230,0.223,0.226,0.125,0.078,��쐼,5.5,��
2021/10/11,01:40,0.160,0.147,0.228,0.221,0.228,0.125,0.080,��쐼,6.1,��
2021/10/11,01:50,0.159,0.146,0.230,0.224,0.228,0.125,0.079,��쐼,6.4,�L
2021/10/11,02:00,0.159,0.145,0.229,0.221,0.226,0.124,0.079,��쐼,6.6,�L
2021/10/11,02:10,0.161,0.145,0.228,0.223,0.228,0.124,0.079,��,6.6,�L
2021/10/11,02:20,0.159,0.145,0.229,0.222,0.226,0.125,0.079,��,6.7,�L
2021/10/11,02:30,0.160,0.145,0.228,0.223,0.228,0.124,0.080,��,7.0,�L
2021/10/11,02:40,0.159,0.145,0.229,0.223,0.226,0.125,0.079,��쐼,6.4,�L
2021/10/11,02:50,0.161,0.146,0.228,0.222,0.229,0.124,0.078,��쐼,7.2,�L
2021/10/11,03:00,0.160,0.145,0.231,0.223,0.227,0.125,0.079,��쐼,5.6,�L
2021/10/11,03:10,0.160,0.145,0.228,0.222,0.229,0.124,0.079,��쐼,7.4,�L
2021/10/11,03:20,0.160,0.145,0.230,0.223,0.229,0.124,0.079,��쐼,7.3,�L
2021/10/11,03:30,0.160,0.145,0.227,0.220,0.228,0.124,0.078,��쐼,7.6,�L
2021/10/11,03:40,0.161,0.145,0.230,0.223,0.229,0.124,0.079,��쐼,7.1,�L
2021/10/11,03:50,0.159,0.144,0.228,0.221,0.225,0.126,0.079,��쐼,7.6,�L
2021/10/11,04:00,0.160,0.146,0.230,0.222,0.229,0.124,0.078,��쐼,7.1,�L
2021/10/11,04:10,0.158,0.145,0.228,0.221,0.226,0.125,0.079,��쐼,8.7,�L
2021/10/11,04:20,0.161,0.145,0.230,0.221,0.228,0.125,0.079,��쐼,8.1,�L
2021/10/11,04:30,0.160,0.145,0.229,0.224,0.227,0.124,0.079,��쐼,8.8,�L
2021/10/11,04:40,0.160,0.146,0.229,0.221,0.227,0.125,0.079,��쐼,8.9,�L
2021/10/11,04:50,0.159,0.145,0.228,0.223,0.229,0.125,0.079,��쐼,8.4,�L
2021/10/11,05:00,0.161,0.145,0.229,0.222,0.227,0.125,0.079,��쐼,8.4,�L
2021/10/11,05:10,0.160,0.145,0.229,0.223,0.230,0.125,0.080,��쐼,8.1,�L
2021/10/11,05:20,0.160,0.146,0.228,0.221,0.227,0.125,0.079,��쐼,9.2,�L
2021/10/11,05:30,0.161,0.145,0.229,0.222,0.228,0.125,0.079,��쐼,8.1,�L
2021/10/11,05:40,0.159,0.146,0.229,0.222,0.227,0.125,0.080,��쐼,8.5,�L
2021/10/11,05:50,0.160,0.146,0.229,0.222,0.227,0.126,0.079,��쐼,6.5,�L
2021/10/11,06:00,0.159,0.146,0.228,0.224,0.228,0.126,0.079,��쐼,6.3,��
2021/10/11,06:10,0.162,0.145,0.230,0.222,0.226,0.125,0.079,��,5.9,��
2021/10/11,06:20,0.158,0.145,0.228,0.223,0.229,0.125,0.079,��쐼,6.1,��
2021/10/11,06:30,0.161,0.145,0.229,0.223,0.226,0.124,0.079,��쐼,6.1,��
2021/10/11,06:40,0.159,0.145,0.227,0.222,0.227,0.125,0.078,�쐼,5.5,��
2021/10/11,06:50,0.160,0.145,0.229,0.224,0.227,0.125,0.078,��쐼,5.6,��
2021/10/11,07:00,0.160,0.145,0.228,0.221,0.226,0.124,0.078,�쐼,6.1,��
2021/10/11,07:10,0.159,0.145,0.229,0.223,0.228,0.126,0.078,��쐼,5.8,��
2021/10/11,07:20,0.160,0.146,0.229,0.221,0.227,0.124,0.078,��쐼,5.4,��
2021/10/11,07:30,0.158,0.145,0.229,0.221,0.227,0.126,0.078,��쐼,4.5,��
2021/10/11,07:40,0.160,0.146,0.230,0.220,0.228,0.125,0.079,��쐼,4.2,��
2021/10/11,07:50,0.160,0.145,0.227,0.223,0.226,0.124,0.078,��쐼,4.1,��
2021/10/11,08:00,0.159,0.146,0.229,0.223,0.226,0.125,0.078,��쐼,5.2,��
2021/10/11,08:10,0.160,0.146,0.229,0.220,0.228,0.125,0.078,��쐼,5.1,��
2021/10/11,08:20,0.159,0.144,0.228,0.221,0.226,0.124,0.078,��,4.9,��
2021/10/11,08:30,0.161,0.146,0.229,0.224,0.228,0.125,0.078,��,4.9,��
2021/10/11,08:40,0.161,0.145,0.228,0.222,0.228,0.126,0.079,��,4.7,��
2021/10/11,08:50,0.158,0.144,0.227,0.220,0.227,0.125,0.079,��,4.6,��
2021/10/11,09:00,0.158,0.144,0.230,0.221,0.225,0.125,0.079,��,4.0,��
2021/10/11,09:10,0.157,0.146,0.230,0.221,0.225,0.125,0.079,��,4.7,��
2021/10/11,09:20,0.158,0.146,0.227,0.219,0.224,0.126,0.079,��,5.9,��
2021/10/11,09:30,0.159,0.145,0.229,0.220,0.224,0.125,0.080,��,5.8,��
2021/10/11,09:40,0.159,0.144,0.230,0.220,0.225,0.124,0.078,��,7.1,��
2021/10/11,09:50,0.158,0.144,0.230,0.220,0.225,0.125,0.079,��,7.1,��
2021/10/11,10:00,0.159,0.144,0.227,0.221,0.227,0.125,0.078,��,8.9,��
2021/10/11,10:10,0.158,0.145,0.228,0.220,0.226,0.125,0.079,��쓌,9.0,��
2021/10/11,10:20,0.159,0.145,0.227,0.221,0.227,0.125,0.078,��,10.0,��
2021/10/11,10:30,0.160,0.145,0.228,0.222,0.228,0.125,0.079,��쓌,9.6,��
2021/10/11,10:40,0.159,0.145,0.228,0.221,0.227,0.125,0.079,��쓌,9.5,��
2021/10/11,10:50,0.160,0.145,0.228,0.221,0.226,0.125,0.079,��쓌,9.0,��
2021/10/11,11:00,0.161,0.145,0.229,0.221,0.226,0.125,0.079,��쓌,9.8,��
2021/10/11,11:10,0.160,0.146,0.228,0.222,0.226,0.125,0.079,��,10.0,��
2021/10/11,11:20,0.160,0.146,0.229,0.222,0.228,0.124,0.079,��,10.9,��
2021/10/11,11:30,0.160,0.145,0.228,0.221,0.228,0.125,0.078,��,10.4,��
2021/10/11,11:40,0.159,0.146,0.229,0.223,0.228,0.126,0.079,��,10.1,��
2021/10/11,11:50,0.161,0.145,0.228,0.222,0.228,0.125,0.079,��쓌,9.5,��
2021/10/11,12:00,0.160,0.146,0.229,0.223,0.229,0.125,0.079,��,8.9,��
2021/10/11,12:10,0.161,0.146,0.229,0.223,0.228,0.125,0.079,��쓌,9.0,��
2021/10/11,12:20,0.160,0.146,0.230,0.223,0.227,0.125,0.079,��,8.3,��
2021/10/11,12:30,0.159,0.145,0.229,0.222,0.228,0.126,0.079,��,8.8,��
2021/10/11,12:40,0.161,0.146,0.230,0.222,0.228,0.126,0.080,��,8.3,��
2021/10/11,12:50,0.159,0.146,0.231,0.223,0.228,0.126,0.079,��,8.6,��
2021/10/11,13:00,0.160,0.147,0.231,0.222,0.229,0.125,0.080,��,8.2,��
2021/10/11,13:10,0.160,0.147,0.229,0.224,0.228,0.125,0.079,��,8.9,��
2021/10/11,13:20,0.160,0.146,0.228,0.224,0.228,0.126,0.080,��,8.3,��
2021/10/11,13:30,0.160,0.145,0.231,0.224,0.229,0.126,0.080,��,8.4,��
2021/10/11,13:40,0.160,0.147,0.230,0.222,0.228,0.126,0.079,��,7.5,��
2021/10/11,13:50,0.161,0.146,0.230,0.224,0.228,0.126,0.079,��,8.2,��
2021/10/11,14:00,0.160,0.146,0.230,0.223,0.228,0.126,0.079,��,8.3,��
2021/10/11,14:10,0.158,0.147,0.230,0.223,0.227,0.125,0.079,��,7.8,��
2021/10/11,14:20,0.160,0.146,0.229,0.222,0.228,0.125,0.078,��,7.4,��
2021/10/11,14:30,0.160,0.145,0.228,0.222,0.226,0.125,0.079,��,6.5,��
2021/10/11,14:40,0.159,0.145,0.228,0.222,0.227,0.125,0.079,��,7.4,��
2021/10/11,14:50,0.158,0.144,0.228,0.225,0.225,0.125,0.079,��,6.7,��
2021/10/11,15:00,0.159,0.146,0.231,0.225,0.226,0.126,0.079,��,5.4,��
2021/10/11,15:10,0.159,0.147,0.233,0.224,0.230,0.126,0.078,��,4.2,��
2021/10/11,15:20,0.162,0.146,0.229,0.222,0.230,0.125,0.080,��,4.1,�L
2021/10/11,15:30,0.162,0.146,0.229,0.222,0.228,0.125,0.079,��,4.7,��
2021/10/11,15:40,0.160,0.145,0.228,0.226,0.226,0.124,0.079,��,4.9,��
2021/10/11,15:50,0.158,0.146,0.231,0.225,0.227,0.125,0.079,��,4.6,��
2021/10/11,16:00,0.161,0.147,0.231,0.223,0.230,0.126,0.079,��,4.5,��
2021/10/11,16:10,0.161,0.146,0.230,0.222,0.230,0.125,0.079,��쐼,3.6,��
2021/10/11,16:20,0.161,0.145,0.228,0.225,0.227,0.125,0.080,��쐼,3.3,��
2021/10/11,16:30,0.159,0.147,0.232,0.225,0.225,0.127,0.079,��쐼,3.1,��
2021/10/11,16:40,0.160,0.148,0.230,0.223,0.229,0.125,0.080,�쐼,2.4,��
2021/10/11,16:50,0.161,0.146,0.229,0.224,0.231,0.125,0.080,���쐼,1.7,��
2021/10/11,17:00,0.160,0.147,0.231,0.225,0.229,0.125,0.079,���쐼,2.8,��
2021/10/11,17:10,0.160,0.147,0.231,0.224,0.226,0.126,0.079,�k��,2.7,��
2021/10/11,17:20,0.161,0.147,0.231,0.224,0.228,0.126,0.080,�k��,3.6,��
2021/10/11,17:30,0.162,0.146,0.229,0.225,0.230,0.126,0.079,�k�k��,4.5,��
2021/10/11,17:40,0.160,0.147,0.232,0.226,0.229,0.126,0.079,�k�k��,6.2,��
2021/10/11,17:50,0.159,0.146,0.230,0.225,0.228,0.126,0.080,�k�k��,7.9,��
2021/10/11,18:00,0.161,0.145,0.229,0.224,0.231,0.125,0.079,�k�k��,8.5,��
2021/10/11,18:10,0.162,0.147,0.233,0.226,0.229,0.126,0.079,�k�k��,6.1,��
2021/10/11,18:20,0.161,0.146,0.230,0.224,0.228,0.126,0.080,�k�k��,5.8,��
2021/10/11,18:30,0.163,0.146,0.231,0.225,0.231,0.125,0.080,�k�k��,6.0,��
2021/10/11,18:40,0.161,0.146,0.231,0.225,0.228,0.126,0.079,�k,6.0,��
2021/10/11,18:50,0.161,0.146,0.230,0.224,0.230,0.127,0.080,�k�k��,6.2,��
2021/10/11,19:00,0.162,0.148,0.233,0.226,0.230,0.125,0.080,�k�k��,6.6,��
2021/10/11,19:10,0.161,0.147,0.230,0.224,0.229,0.126,0.080,�k�k��,6.3,��
2021/10/11,19:20,0.161,0.147,0.231,0.226,0.230,0.126,0.079,�k�k��,7.4,��
2021/10/11,19:30,0.161,0.146,0.231,0.226,0.229,0.126,0.080,�k�k��,6.7,��
2021/10/11,19:40,0.160,0.148,0.231,0.225,0.228,0.125,0.081,�k�k��,6.9,��
2021/10/11,19:50,0.162,0.146,0.231,0.227,0.230,0.126,0.079,�k�k��,6.6,��
2021/10/11,20:00,0.161,0.146,0.230,0.223,0.228,0.126,0.080,�k�k��,6.4,��
2021/10/11,20:10,0.162,0.147,0.232,0.226,0.230,0.126,0.080,�k�k��,6.8,��
2021/10/11,20:20,0.162,0.146,0.230,0.223,0.227,0.125,0.080,�k�k��,6.0,��
2021/10/11,20:30,0.161,0.147,0.233,0.225,0.230,0.126,0.079,�k�k��,6.4,��
2021/10/11,20:40,0.163,0.146,0.231,0.225,0.229,0.126,0.079,�k�k��,7.1,��
2021/10/11,20:50,0.161,0.147,0.232,0.224,0.230,0.126,0.079,�k�k��,6.5,��
2021/10/11,21:00,0.162,0.146,0.231,0.226,0.229,0.126,0.080,�k�k��,6.2,��
2021/10/11,21:10,0.161,0.146,0.232,0.224,0.228,0.126,0.081,�k�k��,6.5,��
2021/10/11,21:20,0.161,0.147,0.232,0.225,0.229,0.126,0.080,�k�k��,5.9,��
2021/10/11,21:30,0.162,0.146,0.231,0.224,0.229,0.126,0.079,�k�k��,5.8,��
2021/10/11,21:40,0.161,0.147,0.232,0.226,0.230,0.126,0.080,�k�k��,6.4,��
2021/10/11,21:50,0.162,0.146,0.231,0.226,0.230,0.125,0.080,�k�k��,4.9,��
2021/10/11,22:00,0.162,0.148,0.232,0.225,0.230,0.126,0.080,�k�k��,6.3,��
2021/10/11,22:10,0.161,0.146,0.229,0.226,0.230,0.125,0.080,�k�k��,6.2,��
2021/10/11,22:20,0.162,0.147,0.232,0.223,0.228,0.126,0.079,�k�k��,6.7,��
2021/10/11,22:30,0.160,0.146,0.231,0.226,0.231,0.126,0.080,�k�k��,6.9,��
2021/10/11,22:40,0.162,0.147,0.232,0.225,0.229,0.127,0.080,�k�k��,6.9,��
2021/10/11,22:50,0.161,0.147,0.230,0.226,0.230,0.125,0.081,�k��,6.7,��
2021/10/11,23:00,0.161,0.148,0.231,0.224,0.230,0.126,0.079,�k��,6.5,��
2021/10/11,23:10,0.161,0.146,0.230,0.225,0.229,0.125,0.079,�k��,6.8,��
2021/10/11,23:20,0.161,0.147,0.231,0.226,0.230,0.126,0.080,�k�k��,5.8,��
2021/10/11,23:30,0.162,0.147,0.231,0.224,0.227,0.126,0.080,�k�k��,5.9,��
2021/10/11,23:40,0.160,0.147,0.231,0.225,0.230,0.126,0.080,�k�k��,5.4,��
2021/10/11,23:50,0.161,0.147,0.233,0.223,0.228,0.126,0.079,�k�k��,4.8,��
